Location: Peterborough
(44.3091°N, 78.3197°W)
Time: 01:04:08
(UTC-04:00)

Vanguard 2 Rocket - Pass Details

Date: 24 March 2023
Orbit: 554 x 3314 km, 32.9° (Epoch: 02 June)

Event Time Altitude Azimuth Distance (km) Brightness Sun altitude
Rises 02:52:34 0° 273° (W) 5,703 - -39.9°
Reaches altitude 10° 02:56:36 10° 262° (W) 5,067 - -39.5°
Maximum altitude 03:09:02 29° 211° (SSW) 4,478 - -38.2°
Exits shadow 03:22:27 13° 164° (SSE) 5,951 10.7 -36.8°
Drops below altitude 10° 03:24:28 10° 160° (SSE) 6,262 10.9 -36.5°
Sets 03:30:22 0° 151° (SSE) 7,217 11.3 -35.9°
